Location: Walnut Point State Park
(39.6958°N, 88.0345°W)
Time: 06:14:45
(UTC-06:00)

Cosmos 1833 Rocket - Visible Passes

Search period start: 25 January 2015 00:00
Search period end: 04 February 2015 00:00
Orbit: 832 x 841 km, 71.0° (Epoch: 24 January)

Date Brightness Start Highest point End Pass type
(mag) Time Alt. Az. Time Alt. Az. Time Alt. Az.
25 Jan 3.5 04:43:26 10° S 04:48:49 50° ESE 04:54:17 10° NNE visible
25 Jan 3.7 06:28:31 10° WSW 06:33:06 24° NW 06:37:34 10° N visible
26 Jan 3.6 04:26:54 10° S 04:32:13 46° ESE 04:37:37 10° NE visible
26 Jan 3.6 06:11:43 10° WSW 06:16:25 26° NW 06:21:02 10° N visible
27 Jan 3.8 04:13:43 31° SSE 04:15:38 42° ESE 04:20:56 10° NE visible
27 Jan 3.5 05:55:35 13° WSW 05:59:45 28° NW 06:04:31 10° N visible
28 Jan 3.9 03:59:17 38° E 03:59:17 38° E 04:04:15 10° NE visible
28 Jan 3.5 05:41:05 24° W 05:43:05 30° WNW 05:47:59 10° N visible
29 Jan 4.4 03:44:16 28° ENE 03:44:16 28° ENE 03:47:34 10° NE visible
29 Jan 3.3 05:26:02 32° WNW 05:26:26 32° WNW 05:31:26 10° N visible
30 Jan 4.9 03:28:56 20° NE 03:28:56 20° NE 03:30:52 10° NE visible
30 Jan 3.5 05:10:41 33° NW 05:10:41 33° NW 05:14:53 10° N visible
31 Jan 5.3 03:13:23 13° NE 03:13:23 13° NE 03:14:09 10° NE visible
31 Jan 3.8 04:55:07 28° NNW 04:55:07 28° NNW 04:58:20 10° N visible
01 Feb 4.2 04:39:24 23° N 04:39:24 23° N 04:41:46 10° N visible
02 Feb 4.5 04:23:34 19° N 04:23:34 19° N 04:25:12 10° N visible
03 Feb 4.9 04:07:39 15° N 04:07:39 15° N 04:08:38 10° NNE visible
